GFSSGP_850_thetae_273.txt.gz
Theta_e
308 311 319 324 320 316 319 320 322 322 320 320 321 325 328 322 328 334 319 321 324 333 335 335 336 336 335 336 334 331 331 331 331 330 331 332 330 329 326 318 324 325 322 320 324 326 325 325 325
308 312 319 324 316 319 318 318 319 318 319 320 324 328 324 319 320 319 320 320 318 328 332 333 335 336 337 336 335 333 329 330 330 330 329 331 329 329 327 320 327 324 321 316 321 325 324 324 324
312 320 324 317 316 317 319 317 316 318 320 319 321 323 321 318 318 317 318 318 317 319 330 332 333 335 337 338 336 336 332 328 328 328 328 328 328 326 329 327 328 327 320 316 325 325 324 322 323
316 320 322 317 319 320 317 315 315 316 319 317 318 318 318 317 317 316 317 317 317 316 318 328 332 333 335 336 336 336 336 331 327 326 324 323 323 325 325 330 329 325 316 318 324 323 322 323 320
322 323 317 316 317 317 314 315 316 316 316 315 317 315 317 314 315 316 315 312 314 314 316 318 326 331 333 334 334 335 336 334 331 327 324 324 323 325 325 330 329 322 316 322 321 323 322 317 311
320 318 316 317 318 315 314 315 315 314 314 315 315 314 315 313 316 315 313 312 312 313 314 314 315 320 330 332 333 333 334 334 333 330 327 324 325 327 328 331 326 319 317 318 322 321 322 311 310
318 313 313 316 316 316 315 315 314 314 314 314 314 313 316 314 313 312 311 311 312 313 313 313 313 312 316 327 331 332 331 332 332 332 328 324 323 329 330 329 324 316 318 321 322 322 319 310 308
316 310 314 314 313 316 314 315 314 315 313 314 314 312 313 312 313 311 311 311 311 311 311 311 311 311 312 314 320 330 332 331 331 331 329 326 323 327 328 327 323 315 318 321 322 322 320 309 308
314 312 311 314 315 314 315 314 315 314 313 314 314 313 312 313 311 311 310 310 310 310 310 311 311 311 312 312 312 314 324 331 331 330 330 328 324 325 325 326 322 316 316 321 321 321 319 309 308
313 311 315 313 314 313 314 314 314 314 314 314 314 314 312 310 310 310 309 309 309 309 308 308 309 309 310 311 311 311 313 319 329 331 330 329 325 324 325 325 323 316 317 320 321 320 319 311 308
314 314 313 314 315 314 314 314 315 314 314 312 311 311 310 310 309 309 309 309 308 307 307 308 307 308 308 309 310 310 310 312 316 327 329 329 327 322 325 327 325 318 318 319 321 320 319 313 308
314 314 314 315 314 314 314 313 313 314 313 313 311 311 310 309 309 308 308 307 307 307 307 306 306 306 308 308 308 309 309 310 312 316 327 328 328 325 324 326 326 320 321 319 318 318 317 314 311
313 313 314 314 314 314 313 313 313 313 314 312 311 310 309 309 307 307 306 304 302 304 306 307 306 306 306 308 308 308 308 308 310 313 322 329 329 328 323 320 323 323 322 321 318 317 315 315 313
314 314 314 314 314 314 313 312 313 312 312 312 312 310 309 308 307 305 304 303 303 303 305 305 307 307 307 307 307 307 307 308 309 310 313 322 327 328 326 322 322 326 323 322 320 319 314 317 319
314 314 314 313 313 313 312 309 311 312 313 311 311 310 309 308 307 306 305 304 303 303 303 304 306 306 307 306 307 307 307 307 307 309 310 315 323 327 328 326 325 326 325 323 321 321 315 318 319
314 314 315 314 313 313 310 307 311 312 312 312 311 310 309 308 307 306 304 302 302 303 303 305 306 306 306 306 305 305 304 306 306 307 309 311 319 325 328 327 325 323 323 324 322 320 316 318 316
313 313 314 315 313 313 311 309 312 312 312 311 311 309 309 308 306 305 303 301 302 303 303 306 307 307 305 306 305 304 303 305 306 306 308 310 315 324 326 327 326 323 321 322 322 322 318 317 314
318 313 313 312 312 312 311 311 311 312 312 312 311 310 308 308 306 305 303 300 299 300 304 306 307 306 305 308 308 307 306 305 305 306 308 310 314 323 326 324 324 319 321 322 322 323 319 316 313
312 312 313 313 312 310 309 310 310 311 311 311 310 310 308 307 306 305 300 299 298 302 305 307 307 306 307 310 309 308 309 308 306 307 309 310 313 323 325 324 323 321 321 322 322 323 317 315 318
313 312 312 309 310 310 309 310 310 309 311 312 311 310 307 307 307 304 300 298 298 303 306 307 308 308 310 311 311 311 311 309 308 307 309 311 317 321 319 323 322 320 320 322 321 320 317 317 318
312 311 309 309 310 310 309 308 313 311 312 312 312 310 309 308 306 302 299 298 300 304 305 306 308 309 311 312 312 311 311 310 309 309 311 312 317 322 322 323 323 320 320 320 320 320 317 318 320
311 311 310 311 309 309 308 308 303 311 311 310 310 310 309 307 306 300 299 298 301 304 305 306 307 309 311 313 312 312 312 312 313 312 314 313 317 319 320 322 321 320 321 322 322 320 319 319 318
310 309 310 310 310 311 309 305 306 310 310 309 309 310 308 307 303 299 298 297 302 304 306 306 308 308 310 312 313 314 315 314 316 315 315 317 318 320 321 322 323 321 321 323 322 321 320 319 319
308 310 310 310 309 307 306 307 307 307 308 308 309 310 307 306 301 299 298 297 302 304 306 306 309 308 310 312 313 312 314 314 317 317 318 319 319 322 322 322 323 323 322 322 321 321 321 320 320
309 309 308 309 307 310 310 308 308 310 309 308 308 307 305 304 300 299 297 297 302 303 306 306 308 308 308 311 312 313 314 314 316 318 319 320 319 321 322 321 321 323 321 322 322 321 320 319 317
308 308 311 311 313 310 307 309 308 309 309 310 310 307 305 302 300 299 297 297 301 303 306 306 308 308 307 309 311 314 315 315 314 317 319 320 319 319 321 320 321 322 321 321 321 320 318 316 314
309 309 307 307 302 307 305 306 307 307 307 306 305 305 304 302 301 298 297 297 301 304 305 306 308 307 307 308 309 313 312 315 317 318 318 318 318 319 320 319 319 319 318 318 317 316 316 314 313
308 306 305 304 305 310 309 309 307 308 306 305 304 304 304 302 301 299 297 297 301 303 305 306 308 308 308 307 307 309 312 312 314 314 315 316 316 316 316 315 314 314 315 315 314 313 312 312 310
306 307 308 306 307 311 309 308 304 307 307 305 305 307 306 303 301 299 297 297 300 302 304 306 307 308 309 310 310 309 310 310 311 311 311 311 312 313 313 313 312 312 311 311 311 311 310 309 307
305 305 306 308 308 306 309 307 306 306 307 306 306 307 307 304 302 300 297 297 298 302 303 305 306 307 308 308 308 308 309 310 309 310 310 310 310 310 310 309 308 307 306 306 306 306 305 303 300

GFSSGP_850_thetae_276.txt.gz
Theta_e
308 309 320 322 319 314 318 319 317 319 319 319 320 326 325 321 327 332 319 318 321 329 332 333 334 336 336 336 335 333 331 331 331 330 331 331 331 328 326 322 318 321 321 319 324 327 325 325 323
308 312 320 324 313 319 317 318 319 318 319 321 325 325 321 318 318 318 318 318 319 320 328 331 332 335 335 337 336 335 332 330 331 330 330 330 332 330 328 324 321 324 321 318 322 325 324 324 323
310 318 322 314 312 316 317 316 316 317 318 319 320 321 319 316 317 317 317 317 317 318 318 325 329 332 333 336 336 336 336 332 329 330 329 328 330 330 328 326 325 325 322 319 322 324 323 323 322
319 323 319 317 319 318 316 315 315 315 316 317 318 316 316 315 317 316 315 313 313 314 315 317 322 328 330 333 335 335 335 335 331 328 328 327 327 328 327 327 327 327 321 319 325 323 323 321 322
321 321 315 314 315 315 314 314 315 314 314 315 316 315 315 313 314 314 313 312 312 313 313 313 314 317 327 329 333 334 334 334 334 331 328 326 324 323 324 325 329 327 320 320 323 322 320 322 316
319 316 315 317 316 314 313 314 314 313 314 314 314 317 313 312 314 313 312 311 311 312 312 312 312 312 313 324 329 331 331 333 334 334 330 326 324 324 323 325 330 326 319 320 321 322 322 314 310
316 309 312 314 315 314 314 314 313 313 313 313 314 313 313 313 313 313 311 310 310 310 311 311 311 311 311 311 319 325 329 331 331 332 332 328 326 324 326 327 330 325 320 317 322 322 322 313 309
315 308 313 312 313 314 313 314 314 314 313 314 314 312 312 312 312 311 310 310 309 309 309 309 309 310 310 311 311 313 322 328 330 330 329 330 327 323 326 329 330 323 318 318 323 322 321 312 309
314 310 309 313 312 314 314 313 314 314 313 314 314 313 311 311 310 310 309 309 309 308 308 308 308 308 308 309 310 311 311 318 328 328 329 329 328 324 328 329 328 323 316 319 322 321 321 312 308
311 309 312 313 313 313 313 313 314 313 313 313 313 312 311 310 310 309 308 308 307 306 306 307 307 307 307 307 308 309 310 311 313 319 325 328 329 326 327 328 327 323 317 317 321 320 320 313 308
312 312 312 314 314 314 313 314 314 313 312 313 313 313 311 310 309 308 308 306 303 301 302 304 304 306 307 307 308 308 308 309 310 312 317 325 328 328 326 324 327 323 319 318 321 320 320 312 308
313 313 314 314 313 314 313 313 312 313 313 314 312 311 310 310 308 307 305 304 302 301 300 300 303 306 307 306 307 307 308 308 309 309 311 316 326 327 326 324 326 325 318 318 320 320 319 315 309
312 313 314 314 313 313 313 312 312 312 313 313 311 311 310 309 308 306 305 303 301 300 299 300 303 306 307 306 306 307 307 308 308 309 309 313 321 324 320 323 322 325 319 319 319 319 317 317 311
313 313 313 314 313 313 313 312 312 312 313 313 311 311 310 309 307 306 305 303 301 300 299 300 304 306 307 307 306 306 307 307 308 308 309 309 318 322 324 322 324 325 321 321 319 318 318 316 314
313 314 313 312 313 312 312 309 310 311 312 312 311 310 309 309 307 306 305 303 300 299 298 301 305 307 307 305 306 307 305 304 306 308 308 309 312 320 325 327 324 322 323 323 322 319 319 318 317
314 312 312 313 312 312 309 309 309 311 312 312 311 310 309 309 307 306 305 303 300 298 298 302 306 307 307 305 307 308 307 304 304 306 308 308 309 316 323 326 324 323 321 322 323 321 321 319 319
311 311 313 313 312 312 310 308 308 312 311 311 311 310 309 308 307 305 305 302 299 298 301 303 307 307 307 307 309 310 309 308 306 306 306 307 309 313 322 325 325 323 321 323 323 321 320 321 320
315 313 312 311 311 311 310 311 309 311 310 311 311 311 309 308 307 306 305 300 298 298 302 305 307 307 307 309 310 311 311 310 308 307 306 307 308 311 321 325 324 323 323 320 319 322 320 320 319
312 312 311 311 311 310 310 310 309 309 310 309 310 311 309 307 306 306 304 299 298 300 303 304 306 307 308 310 311 311 311 310 309 307 306 307 308 311 320 324 322 321 319 319 320 321 319 318 318
312 311 310 309 310 309 308 310 309 308 307 308 310 311 309 306 307 306 302 299 298 301 303 305 307 308 309 311 312 311 311 310 309 307 307 308 309 313 320 323 324 319 320 320 321 322 319 315 315
311 309 308 308 308 308 307 307 307 311 310 310 310 312 308 308 307 306 300 298 298 301 305 306 307 308 308 311 313 312 314 312 312 308 308 310 310 316 322 320 322 322 321 321 322 322 320 315 315
310 311 309 310 308 306 306 309 303 309 310 309 310 309 308 308 307 304 299 298 299 302 306 306 307 308 309 312 312 313 314 314 314 312 311 312 312 317 321 322 324 323 321 321 321 322 320 314 318
309 308 309 310 309 309 307 304 307 307 308 309 308 308 309 308 306 301 299 297 300 303 306 306 308 308 310 311 312 313 313 315 316 313 313 313 316 317 318 321 323 321 321 320 322 321 319 316 318
307 309 309 308 308 306 304 306 308 304 308 307 308 310 309 306 304 300 298 297 301 303 306 307 308 308 308 310 312 313 314 314 317 316 316 314 317 318 319 321 321 321 320 321 321 321 319 319 318
309 307 308 308 308 309 310 308 310 307 310 307 307 309 307 305 302 300 298 297 301 304 306 307 309 308 309 310 313 312 313 314 316 316 318 317 316 320 321 321 322 323 321 322 322 321 320 319 319
307 307 309 309 312 310 307 310 308 306 308 309 308 309 306 303 301 300 298 297 301 305 306 308 309 309 309 311 313 312 311 314 316 316 317 318 317 318 318 321 322 321 322 321 320 320 320 318 316
308 309 306 307 300 306 306 305 304 307 306 306 306 305 304 303 301 299 298 297 302 305 306 308 309 309 309 309 312 313 312 314 316 317 318 318 315 315 319 319 320 320 319 320 320 316 315 313 312
307 305 306 303 304 307 307 308 307 307 306 304 302 303 304 302 301 299 298 297 301 305 305 307 309 309 311 310 311 313 313 311 314 316 317 318 318 318 318 319 319 318 316 314 313 314 312 312 312
306 307 307 305 307 310 308 308 303 306 305 304 303 305 305 303 301 299 298 297 300 304 305 306 308 309 310 309 309 311 312 312 312 316 316 316 316 315 315 314 314 314 314 312 311 312 310 311 310
304 306 306 309 307 305 308 308 305 306 305 304 305 307 307 305 302 300 298 297 299 303 306 306 307 308 309 309 309 310 310 311 312 312 313 313 313 313 312 311 311 310 310 311 312 311 307 306 306

GFSSGP_850_thetae_279.txt.gz
Theta_e
308 307 318 320 319 313 318 318 316 319 319 318 320 324 323 320 327 328 319 318 318 320 328 330 332 333 335 337 336 335 333 331 331 331 331 331 331 330 326 323 321 316 319 321 322 324 323 325 323
307 309 317 323 314 318 316 316 319 317 317 324 324 323 320 317 317 318 318 317 317 317 318 325 329 331 333 335 336 336 335 333 331 331 330 330 330 331 328 326 322 319 322 320 326 324 323 324 323
309 313 320 314 310 315 315 316 316 316 316 318 319 320 318 316 316 317 316 313 314 316 318 319 321 328 330 331 333 334 335 335 333 330 330 330 329 330 331 328 324 321 322 321 324 324 323 323 322
316 319 318 317 318 315 315 315 314 315 315 316 319 315 316 316 316 315 313 312 313 313 313 313 314 317 324 328 330 332 333 333 334 333 330 329 329 328 331 329 327 324 324 320 318 323 323 322 321
318 318 313 314 314 315 313 314 313 313 313 314 316 316 315 313 313 312 312 311 311 311 311 311 311 311 312 316 326 329 333 333 333 333 332 329 329 327 328 328 327 326 326 320 323 323 323 322 322
318 315 315 315 314 314 313 313 313 312 313 314 314 316 314 312 313 313 313 312 311 310 310 310 310 311 311 311 312 318 325 330 331 333 332 331 328 327 325 324 326 328 327 320 323 321 321 322 320
315 309 313 314 313 314 313 314 313 312 312 313 313 314 313 312 312 312 311 311 310 309 309 309 309 309 309 310 310 310 312 323 329 330 332 332 328 327 325 324 324 328 327 322 320 322 320 320 317
315 308 312 311 313 315 313 313 313 313 312 313 313 310 312 313 313 312 311 310 309 308 308 308 308 308 308 308 308 309 310 311 318 327 330 331 328 328 326 324 325 327 327 321 319 322 320 320 310
314 310 309 311 311 313 313 313 314 313 312 313 313 312 312 312 311 310 309 308 308 305 303 302 303 303 304 305 308 308 308 309 310 314 323 328 327 328 327 325 326 328 326 319 320 323 321 317 310
309 307 310 312 312 312 313 312 313 313 312 312 313 313 312 311 310 309 308 308 304 302 301 300 300 302 303 304 308 309 308 308 309 310 311 318 324 326 328 324 327 328 323 316 322 322 321 317 309
310 310 312 314 313 313 313 313 313 312 311 312 313 313 312 311 309 308 307 304 303 301 300 300 300 301 303 304 307 308 307 308 308 308 309 310 314 325 327 325 326 328 323 318 321 322 321 318 308
313 312 313 314 314 313 313 313 312 312 313 313 313 313 311 310 309 307 305 304 302 301 300 299 299 301 303 305 307 307 307 307 307 308 308 309 310 323 327 326 326 327 322 318 319 321 320 319 309
311 312 313 314 313 313 313 312 310 311 312 313 313 311 310 310 309 307 306 304 303 300 299 299 299 301 304 306 308 308 307 307 307 307 307 308 309 314 325 324 327 326 322 319 318 321 319 318 309
313 312 313 313 313 313 312 311 311 311 312 313 312 311 310 310 309 307 306 305 303 300 299 299 300 302 305 307 308 308 308 307 307 307 307 307 308 310 322 322 323 324 324 321 318 321 320 319 312
313 312 311 311 312 312 311 309 310 312 311 312 312 311 310 309 309 307 306 305 303 300 299 299 301 304 306 308 309 309 309 308 307 305 305 307 307 310 320 322 320 319 320 321 319 320 320 318 315
313 311 310 312 311 312 309 310 307 310 311 311 312 311 310 309 309 307 306 305 303 299 298 300 302 305 308 309 309 310 310 309 308 307 304 306 307 308 316 321 321 321 320 320 320 320 320 318 316
310 309 312 311 311 311 310 310 307 310 311 311 312 312 310 309 308 307 306 305 301 298 299 301 303 307 308 310 310 310 309 309 309 308 306 305 307 307 310 321 322 322 322 323 322 321 320 318 318
311 312 311 310 310 310 310 310 310 310 311 311 312 311 310 309 308 307 306 305 299 298 300 302 304 307 308 310 311 311 310 309 309 308 307 306 306 307 309 319 322 323 321 322 323 322 321 316 319
312 311 311 309 310 310 309 309 309 308 309 308 310 311 311 310 308 306 306 303 299 299 300 304 304 307 307 310 311 311 311 313 310 309 307 305 307 307 310 319 322 322 322 319 322 322 320 317 318
311 311 309 308 309 309 308 308 308 307 306 307 308 310 311 309 307 306 306 301 298 299 301 304 306 307 308 310 311 311 313 313 312 309 307 306 307 308 311 321 322 323 320 316 315 316 317 316 316
310 308 307 309 307 307 305 308 306 308 309 309 307 308 309 310 307 306 305 299 298 299 302 305 307 307 309 311 311 312 312 313 314 310 307 307 308 309 318 321 321 321 318 316 317 319 320 316 313
310 309 309 309 307 307 305 310 304 306 307 309 308 309 310 308 307 306 303 298 298 300 304 307 308 308 310 310 310 312 312 314 313 312 311 309 310 315 319 322 321 321 317 318 319 320 319 316 313
308 308 308 309 308 309 307 305 307 305 308 309 308 309 309 308 307 306 300 298 299 301 305 308 309 309 310 311 311 312 312 315 314 314 313 312 313 317 320 319 320 319 321 321 320 322 319 315 313
306 308 307 307 307 309 304 306 309 303 308 306 307 309 308 308 306 304 299 298 300 302 307 309 310 310 311 312 311 312 312 314 314 315 313 315 315 318 319 320 321 321 321 320 321 321 320 317 313
308 306 308 309 309 312 308 308 311 307 308 307 306 309 309 307 305 302 299 298 301 303 308 309 310 310 311 312 312 313 313 314 314 315 314 316 317 318 319 320 321 321 321 321 320 321 321 318 316
306 306 309 311 311 310 307 310 309 305 306 307 309 309 309 306 304 300 298 298 302 304 307 309 309 311 311 311 311 313 314 315 315 315 316 317 317 318 320 319 319 319 321 320 321 321 320 319 317
307 308 306 306 299 306 306 304 304 304 307 306 306 307 307 306 303 300 299 298 302 304 306 308 308 310 310 311 312 313 315 315 314 316 317 315 315 316 319 319 319 319 319 320 320 319 317 316 315
306 304 306 304 305 307 307 307 307 308 307 305 303 304 306 305 303 301 299 298 302 304 306 308 309 310 310 310 311 312 314 315 314 316 315 315 317 316 318 320 319 319 319 318 318 315 313 313 312
306 306 306 304 306 309 308 312 303 305 305 305 303 306 306 305 304 302 299 298 301 304 306 307 308 310 310 310 311 312 312 313 315 315 315 316 316 317 318 318 316 314 313 312 312 312 312 313 311
305 306 305 308 308 305 307 308 304 303 305 303 305 307 307 306 305 302 300 298 300 303 306 306 308 309 310 311 311 311 311 312 313 315 315 315 315 315 316 315 314 312 312 311 312 310 311 311 311

GFSSGP_850_thetae_285.txt.gz
Theta_e
310 307 312 317 318 317 319 319 315 318 318 320 317 320 324 321 328 328 316 317 319 319 320 321 325 328 328 331 332 333 334 335 335 332 330 331 332 332 331 329 327 321 319 318 318 321 321 319 320
309 308 315 320 317 318 316 314 318 316 318 321 322 321 320 321 319 317 317 318 318 318 318 318 317 318 320 325 328 330 331 332 334 335 333 331 331 331 331 330 329 322 320 319 316 317 320 320 322
308 311 317 314 312 316 317 314 316 314 315 320 319 319 319 318 317 317 317 317 317 317 317 317 316 315 314 313 314 319 325 329 331 334 334 333 331 331 331 330 330 327 323 320 318 319 322 325 325
310 315 316 317 315 314 313 314 313 313 313 315 317 317 317 318 317 316 316 316 315 315 315 314 312 311 310 310 310 310 311 317 324 327 332 332 332 331 331 331 330 329 325 321 321 325 323 323 323
314 316 312 314 315 314 311 313 313 313 313 313 316 316 317 316 316 315 315 315 315 315 313 310 309 309 309 309 309 309 309 309 310 315 325 331 331 331 330 330 330 330 328 324 325 324 323 323 323
316 313 312 312 311 312 311 313 312 312 312 313 313 314 315 314 314 315 315 314 314 311 309 308 308 307 307 306 306 307 308 308 309 309 311 321 328 329 329 329 330 329 330 326 325 324 323 324 322
314 312 312 313 313 312 313 312 311 311 311 312 314 313 313 313 313 313 314 313 310 309 308 306 304 303 302 302 302 302 302 303 305 308 308 310 316 324 328 327 327 329 329 328 326 325 323 323 322
315 310 311 310 311 313 311 312 312 312 311 312 313 312 312 313 313 313 312 311 309 308 306 303 302 302 302 302 301 301 301 302 303 304 307 308 309 314 323 326 327 327 328 328 326 325 324 323 322
314 312 311 311 309 311 311 311 313 312 311 312 313 312 312 311 312 312 311 310 308 306 304 303 302 302 302 302 301 300 301 302 304 305 307 308 308 309 313 321 326 326 328 326 327 326 325 322 321
310 310 311 308 307 311 311 311 312 312 311 311 312 312 312 312 312 312 311 308 307 305 304 303 302 302 302 301 300 301 303 307 309 309 308 309 308 308 309 315 321 325 327 326 326 326 325 322 319
308 309 307 311 313 312 311 311 312 311 311 312 312 312 312 312 312 312 310 308 306 306 304 303 302 301 300 300 300 301 305 309 309 309 308 308 308 308 308 309 317 322 326 325 324 326 324 321 317
310 310 311 312 313 313 311 312 311 312 313 313 312 312 312 312 312 311 309 307 306 306 305 304 301 301 300 300 301 303 307 309 309 309 308 308 307 307 307 308 311 319 324 325 321 324 321 322 320
311 310 312 312 313 312 312 311 310 310 312 311 312 312 312 312 312 309 309 308 307 306 306 304 301 300 300 301 302 306 309 309 309 309 308 308 307 307 307 308 311 317 324 325 322 323 317 321 316
311 311 311 312 312 312 311 310 310 311 310 311 311 311 312 312 310 309 309 308 307 307 306 304 300 300 301 302 306 309 310 309 309 308 308 307 306 306 306 308 312 321 325 325 324 321 320 321 317
312 311 309 310 311 311 310 309 309 311 311 311 311 311 311 311 310 310 309 308 308 307 306 302 299 300 301 303 308 309 310 309 309 310 309 308 307 306 306 308 313 321 325 324 321 319 321 320 312
311 308 310 310 310 311 310 313 310 309 309 310 311 311 311 311 311 310 309 308 308 307 306 300 299 301 304 306 309 309 310 310 310 311 310 308 307 306 306 308 314 321 324 323 321 318 321 319 312
306 312 309 309 310 310 310 312 310 309 309 309 310 310 311 311 311 310 309 309 308 306 304 299 301 305 307 309 310 310 311 311 312 312 310 308 307 305 306 308 317 321 322 323 320 319 320 318 315
312 312 311 310 310 310 310 311 310 310 310 310 311 310 311 311 312 310 309 308 307 306 300 300 305 308 308 310 310 311 312 312 311 310 308 308 307 305 306 308 318 319 321 321 317 317 320 317 314
311 312 312 309 308 309 309 309 308 308 308 307 308 309 310 311 311 310 310 308 306 304 299 302 308 309 309 310 312 312 312 311 310 310 307 307 306 305 306 309 315 320 321 319 317 318 319 315 314
310 310 309 308 307 308 306 308 308 305 304 305 306 307 308 309 310 310 309 307 306 301 300 307 309 310 310 311 311 312 312 312 311 311 307 306 305 305 306 312 316 319 318 321 319 320 317 315 315
310 309 307 310 306 305 304 309 308 306 307 309 308 307 307 307 309 310 308 306 304 299 303 309 309 310 311 312 312 311 312 311 312 313 309 306 306 307 307 309 316 318 320 320 320 320 319 314 312
312 307 308 308 308 309 305 313 308 306 304 306 308 307 307 308 309 309 307 306 300 300 307 310 309 310 311 312 311 312 312 311 312 311 309 307 307 308 307 312 318 319 319 320 319 319 317 315 314
311 307 307 308 308 308 307 307 310 304 307 308 307 307 307 308 309 308 306 304 299 301 307 308 310 310 311 313 312 313 313 311 312 312 313 312 312 315 315 319 318 320 319 317 317 319 317 316 315
305 307 306 305 307 309 305 307 313 306 306 306 307 307 308 308 308 306 305 301 299 302 306 308 309 310 312 314 314 313 313 313 313 315 316 317 317 316 316 319 319 319 318 317 317 316 317 316 315
306 307 311 311 309 314 307 308 311 308 305 305 305 308 308 307 307 307 305 300 299 302 306 308 310 311 313 313 313 314 314 313 313 314 317 317 317 319 317 319 319 317 316 317 317 317 317 316 315
305 307 312 313 311 309 307 310 312 306 305 306 307 308 309 307 307 306 303 299 300 302 307 308 310 310 312 313 314 314 314 314 314 315 316 317 318 318 318 319 318 317 319 320 319 318 317 316 315
306 307 305 306 298 306 308 306 306 303 303 306 305 306 308 308 308 306 303 299 299 302 307 308 310 311 311 312 313 314 315 314 315 315 317 318 316 317 318 319 318 319 318 319 320 320 319 317 316
305 303 307 304 309 309 309 307 311 308 306 302 304 304 307 308 307 306 303 299 299 302 307 307 309 311 311 312 312 313 315 315 314 315 315 316 317 318 319 319 319 319 319 320 320 320 318 318 316
305 305 305 304 305 310 309 313 304 306 306 304 302 306 307 308 308 306 303 300 299 303 306 307 309 310 310 311 311 313 314 314 314 314 315 316 317 316 317 318 318 317 318 318 317 319 318 317 316
304 304 304 308 307 304 306 309 306 303 304 304 304 307 307 308 308 306 303 301 299 302 305 306 308 309 310 311 314 314 315 314 314 314 314 315 316 317 317 317 317 316 316 317 317 317 317 317 316

GFSSGP_850_thetae_288.txt.gz
Theta_e
309 307 312 318 321 321 320 322 322 325 323 321 319 323 327 327 330 326 319 322 322 321 321 322 324 325 326 327 330 331 331 333 334 335 335 332 332 331 332 332 330 329 326 326 329 331 332 332 333
309 308 314 320 319 320 320 322 323 325 322 323 322 323 325 326 321 319 319 321 320 320 320 319 318 318 317 317 317 320 325 329 330 333 335 334 332 332 332 331 331 329 327 324 325 326 327 328 329
309 311 318 320 320 320 320 321 322 320 321 323 323 321 324 324 318 318 319 320 319 318 318 318 317 316 315 313 312 311 312 313 319 325 329 333 334 332 332 331 331 330 325 321 327 326 325 325 322
312 316 317 320 320 320 320 321 321 319 316 318 320 323 319 319 318 317 320 319 317 317 317 316 313 310 309 309 309 309 309 309 310 310 315 326 331 332 332 331 331 330 329 325 326 327 325 325 325
313 316 318 320 320 320 319 318 319 320 319 317 319 321 320 317 319 319 318 317 316 315 314 311 309 308 308 308 307 306 307 308 309 309 309 310 319 328 331 330 331 331 330 328 327 326 326 325 324
316 317 318 319 319 318 318 317 317 318 318 316 316 318 318 315 317 317 317 315 314 313 310 309 308 306 304 303 303 303 303 303 303 303 306 308 309 313 325 330 329 330 330 330 327 326 326 324 323
318 319 319 318 319 318 318 315 316 318 317 317 315 317 316 313 314 315 314 314 313 310 308 308 305 303 303 303 303 303 303 302 302 302 302 303 306 309 310 321 328 328 329 329 329 327 326 324 324
317 319 318 318 319 319 316 315 314 315 317 313 315 317 317 314 313 313 313 312 311 309 308 306 304 303 302 303 303 302 302 301 301 301 302 302 303 305 308 309 319 326 327 328 329 327 326 325 324
315 318 319 318 316 317 314 316 314 313 314 313 314 314 313 312 312 312 312 311 311 308 306 305 303 303 303 303 303 302 301 301 301 303 305 306 305 305 306 308 310 320 326 326 328 328 326 325 323
317 318 318 315 314 315 315 315 315 315 315 314 314 313 313 312 311 312 312 311 309 307 306 305 304 303 302 302 302 302 301 301 303 308 310 310 309 308 308 308 308 312 322 326 326 327 326 325 323
313 317 313 313 314 314 315 314 314 315 316 316 316 315 312 312 311 311 312 311 308 307 306 305 305 303 302 301 301 301 301 304 308 309 309 309 308 309 308 308 308 309 318 324 325 327 326 325 323
313 312 312 314 314 314 315 314 315 314 316 314 314 312 312 311 311 312 312 309 308 307 306 306 305 303 301 301 301 301 304 308 309 309 309 309 309 308 308 307 308 309 315 323 325 326 326 323 320
314 314 313 313 313 313 313 314 314 314 313 313 312 312 312 311 311 312 310 309 308 307 307 306 305 302 301 301 301 303 309 310 309 309 308 308 307 307 307 308 307 308 315 323 325 325 324 319 318
313 313 314 313 313 313 313 314 311 313 311 312 311 311 312 312 312 311 309 309 309 308 307 306 305 301 300 301 304 307 309 310 309 309 309 309 308 307 306 307 307 309 318 321 325 325 322 318 317
313 315 314 313 313 314 312 314 313 314 311 311 311 311 311 311 311 310 310 309 309 308 307 306 305 301 301 306 308 309 309 310 310 311 310 310 308 307 306 306 307 309 317 323 324 322 318 318 316
314 313 319 314 313 313 312 321 315 310 311 312 312 311 311 311 311 311 310 310 309 308 307 306 302 300 307 309 310 310 310 310 311 311 311 311 309 307 306 306 307 313 320 322 324 321 317 316 315
314 323 317 316 313 314 314 319 317 310 310 313 312 312 311 311 311 311 310 310 309 308 306 305 300 303 310 310 310 311 311 312 312 310 309 308 309 307 306 306 307 316 320 321 322 320 318 317 311
326 320 316 317 315 313 315 316 316 315 313 313 313 312 311 311 311 311 311 310 309 308 306 301 301 309 310 311 312 312 311 312 311 310 310 307 308 306 306 306 308 316 320 321 320 318 318 313 313
315 316 317 315 311 311 315 315 315 315 313 312 312 312 312 311 311 311 311 310 308 307 304 300 306 310 311 312 312 312 312 312 313 312 309 306 306 306 306 307 312 317 321 321 320 318 313 313 314
313 315 317 315 309 311 315 314 315 312 311 310 310 310 310 310 309 311 311 309 308 306 301 302 310 310 311 312 311 312 312 311 310 310 308 306 305 306 306 307 314 318 320 318 318 317 314 312 312
314 317 317 315 312 309 311 322 319 312 310 310 310 309 308 309 309 310 310 308 307 304 301 306 310 310 311 312 312 312 311 312 311 311 308 306 306 306 307 309 316 319 319 318 317 318 316 315 316
316 312 311 312 314 322 312 332 320 314 312 309 310 310 309 307 308 309 309 308 306 301 301 307 310 310 311 312 312 312 311 312 312 311 309 308 308 308 308 313 316 319 320 317 317 318 315 315 315
315 310 311 311 313 313 315 320 328 312 315 312 312 310 308 308 307 309 308 307 304 301 302 307 310 311 312 313 313 313 312 313 314 314 314 311 309 310 315 316 316 318 319 319 320 318 314 315 314
309 310 310 311 313 321 313 316 333 322 315 311 311 309 307 307 308 308 307 305 301 301 302 307 310 311 313 313 314 313 312 314 315 316 317 314 314 314 315 319 320 318 319 320 320 319 315 316 314
309 312 327 329 321 325 311 313 324 316 310 309 312 310 307 307 308 307 306 303 300 301 304 308 310 312 313 313 314 313 313 313 315 317 316 316 315 317 319 317 320 318 318 317 317 317 317 314 314
310 313 321 330 323 317 310 317 321 311 309 309 307 310 308 307 307 307 306 302 300 301 305 308 310 311 312 313 314 313 314 313 314 317 318 318 315 316 317 320 319 318 317 317 317 317 316 316 314
310 311 309 311 305 314 317 314 314 309 309 308 309 308 309 307 307 307 305 301 300 301 306 308 310 311 312 312 314 314 314 315 315 315 317 318 320 318 319 319 317 317 319 319 317 317 317 317 316
309 307 312 312 321 321 317 314 320 312 310 309 310 309 309 308 307 307 306 302 300 301 306 307 310 311 311 312 313 314 315 314 315 316 316 316 317 319 320 318 318 318 319 318 318 317 317 317 316
308 309 309 311 312 318 319 319 312 311 309 310 310 310 309 308 308 308 306 302 300 301 305 307 309 310 311 311 312 313 315 314 314 315 316 317 316 319 319 318 319 318 318 318 319 319 318 317 317
307 310 310 316 313 309 310 318 309 308 307 307 308 308 308 308 308 308 306 302 300 300 304 307 309 310 311 311 313 313 314 314 314 314 315 316 317 317 317 317 317 318 318 319 318 319 318 318 317

GFSSGP_850_thetae_291.txt.gz
Theta_e
309 308 315 321 323 321 322 323 324 326 326 324 323 326 327 328 329 328 321 323 326 325 326 327 327 326 326 325 325 326 329 330 331 333 335 335 333 333 332 332 332 331 330 329 328 329 333 333 331
310 309 318 322 321 323 323 323 323 324 326 325 324 324 326 327 325 322 321 324 325 324 323 323 321 320 319 319 318 317 316 316 320 325 329 332 335 333 332 332 332 331 330 329 329 329 330 331 333
309 314 320 321 322 322 323 324 323 324 325 326 326 325 327 327 322 322 320 321 323 322 321 321 320 319 318 315 312 310 310 310 310 311 313 321 327 333 334 332 332 332 330 328 328 328 327 327 327
316 316 317 319 322 322 322 322 323 323 321 325 324 325 322 322 321 320 320 321 320 320 320 320 318 315 310 309 309 309 309 309 309 309 309 309 311 322 330 333 332 331 331 330 326 327 327 325 323
316 318 320 322 322 322 322 320 322 323 323 322 322 324 323 320 320 320 320 320 319 319 318 315 311 309 308 308 306 305 304 304 304 303 304 307 309 309 315 329 330 331 331 331 328 327 328 327 324
318 319 320 322 323 322 321 320 320 321 322 321 320 322 321 319 317 318 318 318 318 316 314 310 309 308 307 305 304 304 304 304 304 303 303 303 303 305 309 311 326 329 330 331 331 328 328 326 324
320 321 321 323 322 322 321 319 320 320 321 321 319 321 320 317 315 315 316 315 314 313 311 309 308 307 305 304 304 304 304 303 303 302 302 302 302 302 303 307 310 322 329 330 331 329 328 327 326
318 320 321 322 322 322 320 318 318 319 320 318 318 320 320 318 315 314 314 313 313 311 310 308 307 305 305 304 304 304 303 303 302 301 301 301 302 303 303 303 306 309 319 329 329 329 328 328 326
316 319 322 322 321 321 318 319 318 317 317 317 317 317 317 316 313 313 312 312 312 311 309 307 306 305 305 304 303 303 303 303 302 301 302 303 305 308 308 306 304 307 309 322 328 328 328 327 326
318 320 321 319 318 318 318 317 318 317 318 318 317 316 314 313 313 313 314 314 313 312 309 307 306 305 305 304 303 302 302 302 301 303 306 309 309 309 309 309 307 306 308 312 324 327 328 327 326
317 319 318 317 316 316 317 317 317 317 318 318 318 318 316 314 313 314 314 314 314 311 309 307 306 306 306 304 302 302 303 302 305 308 309 310 309 309 310 310 310 309 308 309 317 326 327 327 325
315 315 315 315 316 316 317 317 317 317 317 317 317 317 317 314 314 314 314 314 312 310 309 307 307 306 306 303 302 303 304 307 309 309 309 309 309 311 310 311 311 311 314 312 319 326 326 325 324
315 316 315 315 315 315 315 316 316 316 316 316 316 314 314 314 314 313 313 313 311 310 309 307 307 307 305 301 302 306 309 309 309 309 309 309 310 310 308 308 310 311 312 318 321 326 325 324 321
317 316 316 316 316 316 315 316 314 316 315 315 315 314 314 314 314 314 313 312 310 309 308 308 307 306 302 301 308 310 309 309 309 310 312 311 310 309 308 307 307 311 312 319 323 325 323 321 318
316 317 319 318 316 316 314 317 316 317 316 314 314 314 314 314 314 313 313 311 311 309 309 308 307 304 301 305 310 310 309 309 310 311 310 310 310 310 308 307 306 310 312 318 322 323 322 318 318
317 317 322 318 316 316 315 323 322 317 315 315 315 315 314 314 313 313 312 311 310 309 309 309 307 302 302 310 311 311 310 311 311 311 309 309 308 309 308 306 307 310 314 318 321 322 319 317 314
318 323 324 322 316 317 316 322 322 316 314 315 316 315 314 314 313 312 312 310 309 310 309 308 304 302 308 311 312 312 311 311 311 311 310 310 308 307 307 306 309 311 316 319 321 319 317 314 311
329 324 324 322 319 316 318 319 319 319 318 318 317 317 315 314 314 312 311 310 310 310 309 307 302 305 311 312 312 312 311 311 311 311 310 308 306 307 306 307 309 311 317 320 318 319 314 311 310
319 321 322 322 317 314 318 319 320 320 319 319 318 317 316 314 314 313 311 310 310 309 308 303 302 309 311 312 312 312 311 311 310 310 309 307 306 306 306 309 309 315 318 319 319 317 314 311 308
317 319 322 321 315 313 318 318 319 319 317 316 316 315 314 315 313 312 309 310 310 309 306 302 305 311 311 313 312 311 311 310 311 311 308 306 306 306 307 308 314 316 319 319 318 317 316 314 309
317 320 323 320 317 317 315 324 326 318 314 314 313 313 312 313 313 311 308 309 309 308 303 302 306 311 311 313 312 311 312 312 311 311 308 307 306 308 308 311 315 318 318 319 318 317 316 311 311
319 318 317 316 317 323 315 333 324 323 319 315 313 313 313 311 312 310 308 308 309 306 302 302 306 311 312 313 313 312 313 314 312 311 310 308 308 308 309 315 319 319 319 318 318 316 315 311 312
318 313 314 314 317 317 319 323 330 322 320 316 315 314 312 311 311 309 308 308 308 304 302 302 308 311 313 314 313 312 313 315 315 313 312 310 309 311 314 316 319 318 318 317 317 316 315 311 311
313 313 314 314 316 325 324 322 333 332 320 315 314 312 311 310 310 308 307 308 306 302 302 303 309 311 313 314 314 313 313 315 315 315 314 314 313 315 316 315 318 319 318 318 317 317 315 311 311
313 315 328 331 324 325 313 316 324 321 314 313 314 312 311 310 309 307 308 307 304 302 302 306 310 311 313 313 314 313 313 315 315 315 314 317 317 316 318 318 317 319 317 317 318 318 315 312 316
313 316 321 328 326 321 312 318 323 315 314 310 313 312 310 310 308 307 307 306 302 302 301 307 310 311 312 313 314 313 314 313 317 317 315 317 319 318 318 319 317 318 319 318 319 318 316 313 315
313 313 313 315 311 317 317 318 318 312 312 311 311 313 311 310 308 307 306 305 302 302 302 307 309 311 312 312 314 314 314 314 315 316 316 319 316 317 319 320 319 319 317 317 317 318 315 314 315
311 311 313 314 326 324 321 319 321 315 313 312 312 311 312 311 309 307 306 306 302 302 302 306 309 311 311 312 313 314 314 314 314 316 317 318 317 319 318 319 318 317 318 318 317 317 316 316 314
309 311 311 314 317 321 323 322 316 316 313 313 313 313 312 312 310 307 306 306 303 302 302 306 308 311 311 311 312 313 314 314 314 315 315 317 318 318 318 318 317 317 317 318 318 317 317 316 315
311 311 312 316 318 314 314 320 312 311 310 310 311 313 312 312 311 308 307 306 304 302 302 304 307 310 311 312 312 313 314 314 313 315 316 316 316 318 317 318 318 317 318 318 318 318 318 317 317